TimeEDT,TemperatureF,Dew PointF,Humidity,Sea Level PressureIn,VisibilityMPH,Wind Direction,Wind SpeedMPH,Gust SpeedMPH,PrecipitationIn,Events,Conditions,WindDirDegrees,DateUTC
12:20 AM,53.6,51.8,94,29.98,0.8,Calm,Calm,-,N/A,,Clear,0,2013-05-09 04:20:00
12:28 AM,53.6,51.8,94,29.98,2.0,Calm,Calm,-,N/A,,Clear,0,2013-05-09 04:28:00
12:35 AM,53.6,51.8,94,29.97,9.0,Calm,Calm,-,N/A,,Clear,0,2013-05-09 04:35:00
12:53 AM,53.1,52.0,96,29.97,10.0,NW,3.5,-,N/A,,Partly Cloudy,320,2013-05-09 04:53:00
1:53 AM,54.0,53.1,97,29.96,10.0,Calm,Calm,-,N/A,,Overcast,0,2013-05-09 05:53:00
2:53 AM,55.0,53.1,93,29.94,9.0,North,4.6,-,0.02,Rain,Light Rain,10,2013-05-09 06:53:00
3:53 AM,54.0,53.1,97,29.93,5.0,Calm,Calm,-,0.00,,Overcast,0,2013-05-09 07:53:00
4:53 AM,55.0,54.0,96,29.93,6.0,Calm,Calm,-,N/A,,Overcast,0,2013-05-09 08:53:00
5:06 AM,55.4,53.6,94,29.92,6.0,Calm,Calm,-,N/A,,Overcast,0,2013-05-09 09:06:00
5:53 AM,55.0,54.0,96,29.93,4.0,Calm,Calm,-,0.02,Rain,Rain,0,2013-05-09 09:53:00
6:19 AM,55.4,53.6,94,29.93,2.0,Calm,Calm,-,0.01,Rain,Light Rain,0,2013-05-09 10:19:00
6:30 AM,55.4,53.6,94,29.94,3.0,Calm,Calm,-,0.01,,Overcast,0,2013-05-09 10:30:00
6:37 AM,55.4,55.4,100,29.94,2.5,Calm,Calm,-,0.01,Rain,Light Rain,0,2013-05-09 10:37:00
6:53 AM,55.9,54.0,93,29.93,2.5,NNW,3.5,-,0.01,Rain,Light Rain,340,2013-05-09 10:53:00
7:28 AM,55.4,55.4,100,29.93,1.2,NNW,3.5,-,0.07,Rain,Heavy Rain,340,2013-05-09 11:28:00
7:53 AM,55.9,55.0,97,29.94,1.8,Calm,Calm,-,0.12,Rain,Rain,0,2013-05-09 11:53:00
8:25 AM,55.4,55.4,100,29.94,2.0,Calm,Calm,-,0.08,Rain,Light Rain,0,2013-05-09 12:25:00
8:35 AM,55.4,55.4,100,29.94,2.5,Calm,Calm,-,0.09,Rain,Light Rain,0,2013-05-09 12:35:00
8:43 AM,57.2,55.4,94,29.94,4.0,Calm,Calm,-,0.09,Rain,Light Rain,0,2013-05-09 12:43:00
8:53 AM,57.0,55.9,96,29.94,5.0,Calm,Calm,-,0.09,,Overcast,0,2013-05-09 12:53:00
9:02 AM,57.2,55.4,94,29.94,5.0,Calm,Calm,-,0.00,Rain,Light Rain,0,2013-05-09 13:02:00
9:42 AM,59.0,55.4,88,29.93,8.0,Calm,Calm,-,0.00,Rain,Light Rain,0,2013-05-09 13:42:00
9:53 AM,59.0,57.0,93,29.94,8.0,Calm,Calm,-,0.00,,Overcast,0,2013-05-09 13:53:00
10:13 AM,60.8,55.4,82,29.93,9.0,NNW,3.5,-,0.00,Rain,Light Rain,340,2013-05-09 14:13:00
10:37 AM,60.8,57.2,88,29.93,10.0,Calm,Calm,-,0.00,,Overcast,0,2013-05-09 14:37:00
10:53 AM,61.0,57.0,87,29.94,10.0,Calm,Calm,-,0.00,,Overcast,0,2013-05-09 14:53:00
11:18 AM,62.6,55.4,77,29.94,10.0,NNW,3.5,-,N/A,,Mostly Cloudy,340,2013-05-09 15:18:00
11:53 AM,64.9,55.9,73,29.94,10.0,Variable,3.5,-,N/A,,Overcast,0,2013-05-09 15:53:00
12:03 PM,64.4,55.4,73,29.93,10.0,NNW,8.1,-,N/A,,Overcast,340,2013-05-09 16:03:00
12:17 PM,64.4,55.4,73,29.92,10.0,NNE,6.9,-,N/A,,Mostly Cloudy,20,2013-05-09 16:17:00
12:25 PM,66.2,55.4,68,29.92,10.0,North,6.9,-,N/A,,Mostly Cloudy,350,2013-05-09 16:25:00
12:33 PM,64.4,53.6,68,29.92,10.0,NNW,3.5,-,N/A,,Mostly Cloudy,330,2013-05-09 16:33:00
12:53 PM,66.9,55.9,68,29.92,10.0,Calm,Calm,-,0.01,,Scattered Clouds,0,2013-05-09 16:53:00
1:53 PM,68.0,54.0,61,29.90,10.0,NW,4.6,-,N/A,,Mostly Cloudy,320,2013-05-09 17:53:00
2:53 PM,69.1,52.0,54,29.89,10.0,Variable,3.5,-,N/A,,Overcast,0,2013-05-09 18:53:00
3:53 PM,66.9,57.9,73,29.89,10.0,South,3.5,-,0.00,,Overcast,190,2013-05-09 19:53:00
4:53 PM,68.0,54.0,61,29.89,10.0,Variable,3.5,-,N/A,,Overcast,0,2013-05-09 20:53:00
5:53 PM,68.0,55.0,63,29.89,10.0,Calm,Calm,-,N/A,,Overcast,0,2013-05-09 21:53:00
6:53 PM,68.0,55.0,63,29.88,10.0,Calm,Calm,-,N/A,,Mostly Cloudy,0,2013-05-09 22:53:00
7:53 PM,62.1,55.9,80,29.91,10.0,Calm,Calm,-,N/A,,Clear,0,2013-05-09 23:53:00
8:53 PM,61.0,57.0,87,29.93,10.0,Calm,Calm,-,N/A,,Overcast,0,2013-05-10 00:53:00
9:53 PM,57.9,57.0,97,29.94,7.0,Calm,Calm,-,0.00,,Partly Cloudy,0,2013-05-10 01:53:00
10:39 PM,55.4,55.4,100,29.94,0.8,Calm,Calm,-,N/A,,Clear,0,2013-05-10 02:39:00
10:53 PM,55.9,55.0,97,29.94,2.0,Calm,Calm,-,N/A,,Clear,0,2013-05-10 02:53:00
11:00 PM,55.4,55.4,100,29.94,5.0,Calm,Calm,-,N/A,,Clear,0,2013-05-10 03:00:00
11:37 PM,53.6,53.6,100,29.94,2.5,Calm,Calm,-,N/A,,Partly Cloudy,0,2013-05-10 03:37:00
11:41 PM,53.6,53.6,100,29.94,1.0,Calm,Calm,-,N/A,,Mist,0,2013-05-10 03:41:00
11:53 PM,54.0,53.1,97,29.95,0.8,Calm,Calm,-,N/A,,Mist,0,2013-05-10 03:53:00
11:55 PM,53.6,53.6,100,29.94,1.2,Calm,Calm,-,N/A,,Scattered Clouds,0,2013-05-10 03:55:00
11:57 PM,53.6,53.6,100,29.94,0.8,Calm,Calm,-,N/A,,Mist,0,2013-05-10 03:57:00